Content
SEND FEEDBACK

Daily
Averages
Monthly
Summary
United States of America

RIMROCK, ARIZONA


Home > North America > United States > Arizona
Elevation: 3830 feet     Latitude: 34 40N     Longitude: 111 43W

WEATHER
 
SELECT A DAY
Number of Records: 137,486;   Date Range: 1/4/95 - 10/18/14
 
SHARE

PRINT THIS DATA

[ ← Previous Day ]
WEATHER ALMANAC - JULY 3, 2014
[ Next Day → ]
[ °C ]   °F
Weather ElementAverageHighLow
Temperature81.6 °F96.8 °F (2:15 pm)71.6 °F (5:55 am)
Dewpoint42.3 °F55.4 °F (9:15 pm)35.6 °F (1:15 am)
Humidity26.4 %57 % (9:15 pm)14 % (3:15 pm)
Barometer30.16 in30.22 in (9:15 pm)30.08 in (3:35 pm)
Wind Speed7.1 mph26.5 mph (4:15 pm)
Wind Gust42.6 mph (4:15 pm)
Weather ElementAverage
Visibility10 mi
Wind DirectionESE (124.3 °)

Weather ElementTotal
Precipitation---
Cooling Degree Days19.2 (Base 65)
Growing Degree Days34.2 (Base 50)
Averaged from 70 records on July 3, 2014
WEATHER CONDITIONS BREAKOUT
WIND DIRECTION BREAKOUT
WEATHER BY HOUR - JULY 3, 2014
[ °C ]   °F
Local TimeTemperatureDewpointHumidityBarometerVisibilityWind DirectionWind SpeedGust SpeedPrecipitationEventsConditions
12:35 AM78.8 °F37.4 °F23 %30.13 in10.0 miCalmClear
12:55 AM77.0 °F37.4 °F24 %30.13 in10.0 miENE (60°)9.2 mphClear
1:15 AM77.0 °F35.6 °F22 %30.13 in10.0 miENE (60°)5.8 mphClear
1:35 AM77.0 °F35.6 °F22 %30.13 in10.0 miCalmClear
1:55 AM77.0 °F35.6 °F22 %30.13 in10.0 miNE (40°)5.8 mphClear
2:15 AM75.2 °F35.6 °F24 %30.13 in10.0 miNE (40°)8.1 mphClear
2:35 AM75.2 °F35.6 °F24 %30.13 in10.0 miNNE (30°)6.9 mphClear
2:55 AM75.2 °F35.6 °F24 %30.13 in10.0 miNNE (30°)6.9 mphClear
3:15 AM75.2 °F35.6 °F24 %30.13 in10.0 miNE (40°)6.9 mphClear
3:35 AM73.4 °F35.6 °F25 %30.13 in10.0 miNE (50°)4.6 mphClear
3:55 AM75.2 °F35.6 °F24 %30.14 in10.0 miNE (50°)3.5 mphClear
4:15 AM75.2 °F35.6 °F24 %30.14 in10.0 miCalmClear
4:35 AM73.4 °F35.6 °F25 %30.15 in10.0 miNE (40°)5.8 mphClear
4:55 AM73.4 °F35.6 °F25 %30.16 in10.0 miCalmClear
5:15 AM73.4 °F35.6 °F25 %30.17 in10.0 miNE (40°)3.5 mphClear
5:35 AM75.2 °F37.4 °F25 %30.17 in10.0 miENE (60°)4.6 mphClear
5:55 AM71.6 °F37.4 °F29 %30.18 in10.0 miCalmClear
6:15 AM77.0 °F37.4 °F24 %30.19 in10.0 miSouth (190°)3.5 mphClear
6:35 AM77.0 °F37.4 °F24 %30.20 in10.0 miCalmClear
6:55 AM78.8 °F37.4 °F23 %30.21 in10.0 miCalmClear
7:15 AM78.8 °F37.4 °F23 %30.21 in10.0 miSouth (180°)3.5 mphClear
7:35 AM80.6 °F39.2 °F23 %30.21 in10.0 miSSE (160°)3.5 mphClear
7:55 AM80.6 °F39.2 °F23 %30.21 in10.0 miSE (140°)4.6 mphClear
8:15 AM82.4 °F41.0 °F23 %30.21 in10.0 miSouth (190°)4.6 mphClear
8:35 AM82.4 °F41.0 °F23 %30.21 in10.0 miCalmClear
9:15 AM84.2 °F42.8 °F23 %30.21 in10.0 miCalmClear
9:35 AM87.8 °F42.8 °F21 %30.21 in10.0 miSSE (160°)6.9 mphClear
9:55 AM89.6 °F42.8 °F20 %30.21 in10.0 miSSE (160°)6.9 mphClear
10:15 AM89.6 °F41.0 °F18 %30.21 in10.0 miSouth (190°)3.5 mphClear
10:35 AM87.8 °F42.8 °F21 %30.20 in10.0 miSW (230°)8.1 mphClear
10:55 AM87.8 °F42.8 °F21 %30.20 in10.0 miSSE (150°)4.6 mphClear
11:15 AM89.6 °F42.8 °F20 %30.19 in10.0 miSSW (200°)5.8 mphClear
11:35 AM91.4 °F42.8 °F18 %30.19 in10.0 miSSW (210°)8.1 mphClear
11:55 AM91.4 °F42.8 °F18 %30.17 in10.0 miSSW (200°)10.4 mph18.4 mphClear
12:15 PM95.0 °F42.8 °F16 %30.17 in10.0 miSW (230°)6.9 mphClear
12:35 PM91.4 °F42.8 °F18 %30.16 in10.0 miWest (280°)11.5 mphClear
12:55 PM91.4 °F42.8 °F18 %30.15 in10.0 miWSW (250°)11.5 mph16.1 mphClear
1:15 PM95.0 °F42.8 °F16 %30.14 in10.0 miWNW (300°)5.8 mphClear
1:35 PM95.0 °F41.0 °F15 %30.13 in10.0 miWSW (250°)6.9 mphClear
1:55 PM95.0 °F42.8 °F16 %30.13 in10.0 miSW (220°)5.8 mph17.3 mphClear
2:15 PM96.8 °F41.0 °F15 %30.12 in10.0 miCalmClear
2:35 PM96.8 °F41.0 °F15 %30.11 in10.0 miWNW (300°)5.8 mphClear
2:55 PM96.8 °F41.0 °F15 %30.10 in10.0 miSSE (150°)8.1 mphClear
3:15 PM96.8 °F39.2 °F14 %30.09 in10.0 miWSW (240°)4.6 mphClear
3:35 PM96.8 °F41.0 °F15 %30.08 in10.0 miCalmThunderstormClear
3:55 PM95.0 °F41.0 °F15 %30.09 in10.0 miSSW (200°)10.4 mphClear
4:15 PM89.6 °F39.2 °F17 %30.10 in10.0 miEast (100°)26.5 mph42.6 mphThunderstormMostly Cloudy
4:35 PM86.0 °F41.0 °F20 %30.11 in10.0 miESE (110°)17.3 mph34.5 mphThunderstormOvercast
4:55 PM78.8 °F50.0 °F36 %30.13 in10.0 miNNE (30°)19.6 mph26.5 mphOvercast
5:15 PM77.0 °F51.8 °F41 %30.14 in10.0 miNE (40°)17.3 mph27.6 mphRain-ThunderstormLight Thunderstorms and Rain
5:35 PM78.8 °F50.0 °F36 %30.13 in10.0 miNE (50°)11.5 mph25.3 mphScattered Clouds
5:55 PM78.8 °F46.4 °F32 %30.12 in10.0 miENE (70°)13.8 mph20.7 mphClear
6:15 PM80.6 °F46.4 °F30 %30.13 in10.0 miEast (80°)12.7 mph20.7 mphThunderstormClear
6:35 PM80.6 °F46.4 °F30 %30.16 in10.0 miESE (120°)12.7 mph19.6 mphThunderstormMostly Cloudy
6:55 PM77.0 °F48.2 °F36 %30.17 in10.0 miSE (140°)15.0 mph26.5 mphMostly Cloudy
7:15 PM78.8 °F46.4 °F32 %30.18 in10.0 miEast (90°)12.7 mphThunderstormMostly Cloudy
7:35 PM78.8 °F46.4 °F32 %30.18 in10.0 miEast (100°)8.1 mphMostly Cloudy
7:55 PM78.8 °F46.4 °F32 %30.19 in10.0 miSSE (150°)4.6 mphClear
8:15 PM78.8 °F46.4 °F32 %30.19 in10.0 miSSW (200°)11.5 mphScattered Clouds
8:35 PM77.0 °F46.4 °F34 %30.20 in10.0 miSouth (180°)15.0 mph23.0 mphThunderstormThunderstorm
8:55 PM75.2 °F51.8 °F44 %30.21 in10.0 miWNW (300°)11.5 mphScattered Clouds
9:15 PM71.6 °F55.4 °F57 %30.22 in10.0 miSSW (210°)3.5 mphThunderstormMostly Cloudy
9:35 PM73.4 °F53.6 °F50 %30.22 in10.0 miSouth (190°)8.1 mphMostly Cloudy
9:55 PM73.4 °F51.8 °F47 %30.22 in10.0 miSE (140°)8.1 mphMostly Cloudy
10:15 PM73.4 °F50.0 °F44 %30.20 in10.0 miSE (130°)9.2 mphScattered Clouds
10:35 PM73.4 °F50.0 °F44 %30.18 in10.0 miNorth (360°)8.1 mphScattered Clouds
10:55 PM75.2 °F48.2 °F38 %30.19 in10.0 miCalmClear
11:15 PM73.4 °F50.0 °F44 %30.20 in10.0 miSE (140°)8.1 mphMostly Cloudy
11:35 PM73.4 °F48.2 °F41 %30.22 in10.0 miWest (280°)8.1 mphMostly Cloudy
11:55 PM75.2 °F46.4 °F36 %30.21 in10.0 miSouth (170°)11.5 mphScattered Clouds
Hourly data recorded from KSEZ, located miles away from Rimrock, Arizona







STORIES FROM OUR PARTNERS